Time,TemperatureF,DewpointF,PressureIn,WindDirection,WindDirectionDegrees,WindSpeedMPH,WindSpeedGustMPH,Humidity,HourlyPrecipIn,Conditions,Clouds,dailyrainin,SoftwareType,DateUTC
2013-03-11 00:03:00,41.0,40.0,29.59,SSE,167,0.0,0.0,98,0.00,,,0.73,,2013-03-11 05:03:00,
2013-03-11 00:12:00,41.0,40.0,29.59,SSE,167,0.0,0.0,98,0.00,,,0.73,,2013-03-11 05:12:00,
2013-03-11 00:22:00,41.0,40.0,29.60,SSE,167,0.0,0.0,98,0.00,,,0.72,,2013-03-11 05:22:00,
2013-03-11 00:32:00,40.0,39.0,29.60,SSW,202,0.0,0.0,98,0.00,,,0.72,,2013-03-11 05:32:00,
2013-03-11 00:42:00,40.0,39.0,29.60,SSW,202,0.0,0.0,98,0.00,,,0.72,,2013-03-11 05:42:00,
2013-03-11 00:52:00,40.0,39.0,29.60,SW,222,0.0,0.0,98,0.00,,,0.72,,2013-03-11 05:52:00,
2013-03-11 01:02:00,40.0,39.0,29.60,SW,222,0.0,0.0,98,0.00,,,0.72,,2013-03-11 06:02:00,
2013-03-11 01:12:00,40.0,39.0,29.60,SW,222,0.0,0.0,98,0.00,,,0.72,,2013-03-11 06:12:00,
2013-03-11 01:22:00,40.0,39.0,29.60,West,261,0.0,0.0,98,0.00,,,0.72,,2013-03-11 06:22:00,
2013-03-11 01:32:00,39.0,38.0,29.61,West,270,0.0,0.0,98,0.00,,,0.72,,2013-03-11 06:32:00,
2013-03-11 01:42:00,39.0,38.0,29.61,West,270,0.0,0.0,98,0.00,,,0.72,,2013-03-11 06:42:00,
2013-03-11 01:52:00,39.0,38.0,29.61,West,269,0.0,0.0,98,0.00,,,0.71,,2013-03-11 06:52:00,
2013-03-11 02:02:00,39.0,38.0,29.61,West,269,1.0,3.0,98,0.00,,,0.71,,2013-03-11 07:02:00,
2013-03-11 02:12:00,39.0,38.0,29.61,West,269,1.0,3.0,98,0.00,,,0.71,,2013-03-11 07:12:00,
2013-03-11 02:22:00,39.0,38.0,29.61,West,269,0.0,2.0,98,0.01,,,0.72,,2013-03-11 07:22:00,
2013-03-11 02:32:00,38.0,37.0,29.60,West,266,0.0,0.0,98,0.01,,,0.71,,2013-03-11 07:32:00,
2013-03-11 02:42:00,38.0,37.0,29.60,West,266,0.0,0.0,98,0.01,,,0.71,,2013-03-11 07:42:00,
2013-03-11 02:52:00,38.0,37.0,29.60,West,263,0.0,0.0,98,0.01,,,0.69,,2013-03-11 07:52:00,
2013-03-11 03:02:00,38.0,37.0,29.60,WSW,246,1.0,7.0,98,0.01,,,0.68,,2013-03-11 08:02:00,
2013-03-11 03:12:00,38.0,37.0,29.60,WSW,246,1.0,7.0,98,0.01,,,0.68,,2013-03-11 08:12:00,
2013-03-11 03:22:00,37.0,36.0,29.60,WSW,250,1.0,5.0,98,0.00,,,0.68,,2013-03-11 08:22:00,
2013-03-11 03:32:00,37.0,36.0,29.60,WSW,245,0.0,1.0,98,0.00,,,0.65,,2013-03-11 08:32:00,
2013-03-11 03:42:00,37.0,36.0,29.60,WSW,245,0.0,1.0,98,0.00,,,0.65,,2013-03-11 08:42:00,
2013-03-11 03:52:00,37.0,36.0,29.60,WSW,243,0.0,2.0,98,0.00,,,0.63,,2013-03-11 08:52:00,
2013-03-11 04:02:00,37.0,36.0,29.59,WSW,243,0.0,0.0,98,0.00,,,0.61,,2013-03-11 09:02:00,
2013-03-11 04:12:00,37.0,36.0,29.59,WSW,243,0.0,0.0,98,0.00,,,0.61,,2013-03-11 09:12:00,
2013-03-11 04:22:00,36.0,35.0,29.59,SSW,196,0.0,1.0,98,0.00,,,0.61,,2013-03-11 09:22:00,
2013-03-11 04:32:00,36.0,35.0,29.58,South,180,0.0,0.0,98,0.00,,,0.61,,2013-03-11 09:32:00,
2013-03-11 04:42:00,36.0,35.0,29.58,South,180,0.0,0.0,98,0.00,,,0.61,,2013-03-11 09:42:00,
2013-03-11 04:52:00,36.0,36.0,29.58,South,180,0.0,0.0,99,0.00,,,0.61,,2013-03-11 09:52:00,
2013-03-11 05:02:00,36.0,36.0,29.57,South,180,0.0,2.0,99,0.00,,,0.59,,2013-03-11 10:02:00,
2013-03-11 05:12:00,36.0,36.0,29.57,South,180,0.0,2.0,99,0.00,,,0.59,,2013-03-11 10:12:00,
2013-03-11 05:22:00,36.0,35.0,29.57,South,180,0.0,1.0,98,0.00,,,0.58,,2013-03-11 10:22:00,
2013-03-11 05:32:00,36.0,35.0,29.56,SSW,192,0.0,0.0,98,0.00,,,0.57,,2013-03-11 10:32:00,
2013-03-11 05:42:00,36.0,35.0,29.56,SSW,192,0.0,0.0,98,0.00,,,0.57,,2013-03-11 10:42:00,
2013-03-11 05:52:00,36.0,35.0,29.56,SSW,198,0.0,2.0,98,0.00,,,0.57,,2013-03-11 10:52:00,
2013-03-11 06:02:00,36.0,35.0,29.56,WSW,240,0.0,2.0,98,0.00,,,0.57,,2013-03-11 11:02:00,
2013-03-11 06:12:00,36.0,35.0,29.56,WSW,240,0.0,2.0,98,0.00,,,0.57,,2013-03-11 11:12:00,
2013-03-11 06:22:00,35.0,34.0,29.57,West,266,1.0,3.0,98,0.00,,,0.56,,2013-03-11 11:22:00,
2013-03-11 06:32:00,35.0,34.0,29.59,West,276,0.0,2.0,98,0.00,,,0.54,,2013-03-11 11:32:00,
2013-03-11 06:42:00,35.0,34.0,29.59,West,276,0.0,2.0,98,0.00,,,0.54,,2013-03-11 11:42:00,
2013-03-11 06:52:00,35.0,34.0,29.59,West,276,0.0,0.0,98,0.00,,,0.53,,2013-03-11 11:52:00,
2013-03-11 07:02:00,35.0,34.0,29.60,West,276,0.0,0.0,98,0.00,,,0.51,,2013-03-11 12:02:00,
2013-03-11 07:12:00,35.0,34.0,29.60,West,276,0.0,0.0,98,0.00,,,0.51,,2013-03-11 12:12:00,
2013-03-11 07:22:00,35.0,34.0,29.59,West,276,0.0,0.0,98,0.00,,,0.51,,2013-03-11 12:22:00,
2013-03-11 07:32:00,35.0,35.0,29.60,West,276,0.0,5.0,99,0.00,,,0.50,,2013-03-11 12:32:00,
2013-03-11 07:42:00,35.0,35.0,29.60,West,276,0.0,5.0,99,0.00,,,0.50,,2013-03-11 12:42:00,
2013-03-11 07:52:00,35.0,34.0,29.60,West,276,0.0,0.0,98,0.01,,,0.51,,2013-03-11 12:52:00,
2013-03-11 08:02:00,35.0,35.0,29.60,WNW,298,2.0,9.0,99,0.01,,,0.51,,2013-03-11 13:02:00,
2013-03-11 08:12:00,35.0,35.0,29.60,WNW,298,2.0,9.0,99,0.01,,,0.51,,2013-03-11 13:12:00,
2013-03-11 08:22:00,34.0,34.0,29.59,NW,316,0.0,5.0,98,0.01,,,0.51,,2013-03-11 13:22:00,
2013-03-11 08:32:00,34.0,34.0,29.60,NW,313,0.0,1.0,98,0.02,,,0.52,,2013-03-11 13:32:00,
2013-03-11 08:42:00,34.0,34.0,29.60,NW,313,0.0,1.0,98,0.02,,,0.52,,2013-03-11 13:42:00,
2013-03-11 08:52:00,34.0,34.0,29.61,NW,313,1.0,2.0,98,0.01,,,0.52,,2013-03-11 13:52:00,
2013-03-11 09:02:00,34.0,34.0,29.61,NW,315,0.0,0.0,99,0.02,,,0.53,,2013-03-11 14:02:00,
2013-03-11 09:12:00,34.0,34.0,29.61,NW,315,0.0,0.0,99,0.02,,,0.53,,2013-03-11 14:12:00,
2013-03-11 09:22:00,34.0,34.0,29.60,NW,317,0.0,2.0,99,0.02,,,0.53,,2013-03-11 14:22:00,
2013-03-11 09:32:00,34.0,34.0,29.59,NW,317,0.0,1.0,98,0.02,,,0.54,,2013-03-11 14:32:00,
2013-03-11 09:42:00,34.0,34.0,29.59,NW,317,0.0,1.0,98,0.02,,,0.54,,2013-03-11 14:42:00,
2013-03-11 09:52:00,34.0,34.0,29.58,NW,317,0.0,1.0,99,0.03,,,0.55,,2013-03-11 14:52:00,
2013-03-11 10:02:00,34.0,34.0,29.57,NW,317,0.0,0.0,98,0.02,,,0.55,,2013-03-11 15:02:00,
2013-03-11 10:12:00,34.0,34.0,29.57,NW,317,0.0,0.0,98,0.02,,,0.55,,2013-03-11 15:12:00,
2013-03-11 10:22:00,34.0,34.0,29.57,NW,317,0.0,2.0,98,0.02,,,0.55,,2013-03-11 15:22:00,
2013-03-11 10:32:00,34.0,34.0,29.57,NW,317,0.0,1.0,99,0.01,,,0.55,,2013-03-11 15:32:00,
2013-03-11 10:42:00,34.0,34.0,29.57,NW,317,0.0,1.0,99,0.01,,,0.55,,2013-03-11 15:42:00,
2013-03-11 10:52:00,34.0,34.0,29.57,NW,317,0.0,2.0,99,0.00,,,0.55,,2013-03-11 15:52:00,
2013-03-11 11:02:00,34.0,34.0,29.58,NW,313,0.0,0.0,99,0.00,,,0.55,,2013-03-11 16:02:00,
2013-03-11 11:12:00,34.0,34.0,29.58,NW,313,0.0,0.0,99,0.00,,,0.55,,2013-03-11 16:12:00,
2013-03-11 11:22:00,34.0,34.0,29.57,NW,313,0.0,0.0,99,0.01,,,0.56,,2013-03-11 16:22:00,
2013-03-11 11:32:00,34.0,34.0,29.57,WNW,288,0.0,2.0,99,0.01,,,0.56,,2013-03-11 16:32:00,
2013-03-11 11:43:00,34.0,34.0,29.57,WNW,288,0.0,2.0,99,0.01,,,0.56,,2013-03-11 16:43:00,
2013-03-11 11:52:00,34.0,34.0,29.57,West,281,0.0,3.0,98,0.01,,,0.56,,2013-03-11 16:52:00,
2013-03-11 12:02:00,34.0,34.0,29.57,West,271,2.0,7.0,98,0.01,,,0.56,,2013-03-11 17:02:00,
2013-03-11 12:14:00,34.0,34.0,29.57,West,271,2.0,7.0,98,0.01,,,0.56,,2013-03-11 17:14:00,
2013-03-11 12:25:00,34.0,34.0,29.57,WNW,284,0.0,5.0,98,0.00,,,0.56,,2013-03-11 17:25:00,
2013-03-11 12:35:00,34.0,34.0,29.56,West,259,0.0,1.0,98,0.00,,,0.56,,2013-03-11 17:35:00,
2013-03-11 12:42:00,34.0,34.0,29.56,West,259,0.0,1.0,98,0.00,,,0.56,,2013-03-11 17:42:00,
2013-03-11 12:52:00,34.0,34.0,29.57,West,279,3.0,5.0,98,0.00,,,0.56,,2013-03-11 17:52:00,
2013-03-11 13:02:00,34.0,34.0,29.57,West,280,4.0,6.0,98,0.01,,,0.57,,2013-03-11 18:02:00,
2013-03-11 13:12:00,34.0,34.0,29.57,West,280,4.0,6.0,98,0.01,,,0.57,,2013-03-11 18:12:00,
2013-03-11 13:22:00,34.0,34.0,29.57,WNW,288,3.0,7.0,99,0.01,,,0.57,,2013-03-11 18:22:00,
2013-03-11 13:32:00,34.0,34.0,29.56,West,278,6.0,8.0,99,0.02,,,0.55,,2013-03-11 18:32:00,
2013-03-11 13:42:00,34.0,34.0,29.56,West,278,6.0,8.0,99,0.02,,,0.55,,2013-03-11 18:42:00,
2013-03-11 13:52:00,34.0,34.0,29.56,WNW,286,5.0,8.0,98,0.02,,,0.54,,2013-03-11 18:52:00,
2013-03-11 14:02:00,34.0,34.0,29.56,West,270,4.0,7.0,98,0.02,,,0.52,,2013-03-11 19:02:00,
2013-03-11 14:12:00,34.0,34.0,29.56,West,270,4.0,7.0,98,0.02,,,0.52,,2013-03-11 19:12:00,
2013-03-11 14:22:00,34.0,34.0,29.56,West,274,5.0,9.0,98,0.02,,,0.50,,2013-03-11 19:22:00,
2013-03-11 14:32:00,34.0,34.0,29.56,West,279,5.0,9.0,99,0.01,,,0.45,,2013-03-11 19:32:00,
2013-03-11 14:42:00,34.0,34.0,29.56,West,279,5.0,9.0,99,0.01,,,0.45,,2013-03-11 19:42:00,
2013-03-11 14:52:00,34.0,34.0,29.55,West,265,5.0,9.0,99,0.01,,,0.44,,2013-03-11 19:52:00,
2013-03-11 15:02:00,34.0,34.0,29.55,West,275,7.0,18.0,98,0.00,,,0.42,,2013-03-11 20:02:00,
2013-03-11 15:12:00,34.0,34.0,29.55,West,275,7.0,18.0,98,0.00,,,0.42,,2013-03-11 20:12:00,
2013-03-11 15:22:00,34.0,34.0,29.56,West,275,9.0,15.0,98,0.00,,,0.41,,2013-03-11 20:22:00,
2013-03-11 15:32:00,34.0,34.0,29.56,West,279,7.0,15.0,98,0.00,,,0.39,,2013-03-11 20:32:00,
2013-03-11 15:43:00,34.0,34.0,29.56,West,279,7.0,15.0,98,0.00,,,0.39,,2013-03-11 20:43:00,
2013-03-11 15:52:00,34.0,34.0,29.57,West,269,7.0,12.0,98,0.00,,,0.38,,2013-03-11 20:52:00,
2013-03-11 16:03:00,34.0,34.0,29.57,West,269,5.0,15.0,98,0.00,,,0.36,,2013-03-11 21:03:00,
2013-03-11 16:12:00,34.0,34.0,29.57,West,269,5.0,15.0,98,0.00,,,0.36,,2013-03-11 21:12:00,
2013-03-11 16:22:00,34.0,34.0,29.57,West,266,5.0,12.0,98,0.00,,,0.34,,2013-03-11 21:22:00,
2013-03-11 16:32:00,34.0,33.0,29.58,West,277,7.0,14.0,97,0.00,,,0.29,,2013-03-11 21:32:00,
2013-03-11 16:43:00,34.0,33.0,29.58,West,277,7.0,14.0,97,0.00,,,0.29,,2013-03-11 21:43:00,
2013-03-11 16:52:00,34.0,33.0,29.59,West,269,7.0,13.0,96,0.00,,,0.25,,2013-03-11 21:52:00,
2013-03-11 17:02:00,34.0,33.0,29.59,WNW,282,6.0,21.0,95,0.01,,,0.20,,2013-03-11 22:02:00,
2013-03-11 17:12:00,34.0,33.0,29.59,WNW,282,6.0,21.0,95,0.01,,,0.20,,2013-03-11 22:12:00,
2013-03-11 17:22:00,33.0,31.0,29.60,WNW,282,10.0,14.0,94,0.01,,,0.17,,2013-03-11 22:22:00,
2013-03-11 17:32:00,33.0,31.0,29.61,West,277,10.0,21.0,94,0.01,,,0.14,,2013-03-11 22:32:00,
2013-03-11 17:43:00,33.0,31.0,29.61,West,277,10.0,21.0,94,0.01,,,0.14,,2013-03-11 22:43:00,
2013-03-11 17:52:00,33.0,31.0,29.61,West,271,9.0,23.0,94,0.01,,,0.14,,2013-03-11 22:52:00,
2013-03-11 18:03:00,33.0,31.0,29.62,West,279,9.0,22.0,93,0.00,,,0.13,,2013-03-11 23:03:00,
2013-03-11 18:12:00,33.0,31.0,29.62,West,279,9.0,22.0,93,0.00,,,0.13,,2013-03-11 23:12:00,
2013-03-11 18:22:00,33.0,31.0,29.63,WNW,282,10.0,14.0,93,0.00,,,0.13,,2013-03-11 23:22:00,
2013-03-11 18:32:00,33.0,31.0,29.65,West,278,10.0,18.0,92,0.00,,,0.13,,2013-03-11 23:32:00,
2013-03-11 18:43:00,33.0,31.0,29.65,West,278,10.0,18.0,92,0.00,,,0.13,,2013-03-11 23:43:00,
2013-03-11 18:52:00,33.0,31.0,29.65,West,274,7.0,13.0,92,0.00,,,0.13,,2013-03-11 23:52:00,
2013-03-11 19:02:00,33.0,31.0,29.66,West,270,9.0,14.0,92,0.00,,,0.13,,2013-03-12 00:02:00,
2013-03-11 19:12:00,33.0,31.0,29.66,West,270,9.0,14.0,92,0.00,,,0.13,,2013-03-12 00:12:00,
2013-03-11 19:22:00,33.0,31.0,29.67,West,272,8.0,16.0,92,0.00,,,0.13,,2013-03-12 00:22:00,
2013-03-11 19:33:00,33.0,31.0,29.68,West,272,7.0,14.0,92,0.00,,,0.13,,2013-03-12 00:33:00,
2013-03-11 19:42:00,33.0,31.0,29.68,West,272,7.0,14.0,92,0.00,,,0.13,,2013-03-12 00:42:00,
2013-03-11 19:53:00,33.0,31.0,29.68,West,275,10.0,18.0,91,0.00,,,0.13,,2013-03-12 00:53:00,
2013-03-11 20:02:00,33.0,30.0,29.70,West,278,8.0,14.0,90,0.00,,,0.13,,2013-03-12 01:02:00,
2013-03-11 20:12:00,33.0,30.0,29.70,West,278,8.0,14.0,90,0.00,,,0.13,,2013-03-12 01:12:00,
2013-03-11 20:22:00,33.0,30.0,29.70,West,278,7.0,13.0,90,0.00,,,0.13,,2013-03-12 01:22:00,
2013-03-11 20:33:00,33.0,31.0,29.71,West,278,10.0,15.0,91,0.00,,,0.12,,2013-03-12 01:33:00,
2013-03-11 20:42:00,33.0,31.0,29.71,West,278,10.0,15.0,91,0.00,,,0.12,,2013-03-12 01:42:00,
2013-03-11 20:52:00,33.0,31.0,29.71,West,278,7.0,15.0,92,0.00,,,0.11,,2013-03-12 01:52:00,
2013-03-11 21:02:00,33.0,31.0,29.72,West,278,8.0,18.0,93,0.00,,,0.11,,2013-03-12 02:02:00,
2013-03-11 21:12:00,33.0,31.0,29.72,West,278,8.0,18.0,93,0.00,,,0.11,,2013-03-12 02:12:00,
2013-03-11 21:22:00,33.0,31.0,29.72,West,278,7.0,21.0,93,0.00,,,0.11,,2013-03-12 02:22:00,
2013-03-11 21:32:00,33.0,31.0,29.73,West,278,9.0,13.0,91,0.00,,,0.11,,2013-03-12 02:32:00,
2013-03-11 21:42:00,33.0,31.0,29.73,West,278,9.0,13.0,91,0.00,,,0.11,,2013-03-12 02:42:00,
2013-03-11 21:52:00,33.0,30.0,29.73,West,278,9.0,15.0,90,0.00,,,0.11,,2013-03-12 02:52:00,
2013-03-11 22:02:00,33.0,30.0,29.75,West,278,10.0,20.0,90,0.00,,,0.11,,2013-03-12 03:02:00,
2013-03-11 22:12:00,33.0,30.0,29.75,West,278,10.0,20.0,90,0.00,,,0.11,,2013-03-12 03:12:00,
2013-03-11 22:22:00,32.0,30.0,29.75,West,278,10.0,15.0,92,0.00,,,0.11,,2013-03-12 03:22:00,
2013-03-11 22:32:00,32.0,30.0,29.76,West,278,10.0,18.0,94,0.00,,,0.11,,2013-03-12 03:32:00,
2013-03-11 22:42:00,32.0,30.0,29.76,West,278,10.0,18.0,94,0.00,,,0.11,,2013-03-12 03:42:00,
2013-03-11 22:52:00,32.0,30.0,29.76,West,278,11.0,20.0,93,0.00,,,0.11,,2013-03-12 03:52:00,
2013-03-11 23:02:00,32.0,30.0,29.77,West,278,12.0,20.0,93,0.00,,,0.11,,2013-03-12 04:02:00,
2013-03-11 23:12:00,32.0,30.0,29.77,West,278,12.0,20.0,93,0.00,,,0.11,,2013-03-12 04:12:00,
2013-03-11 23:22:00,32.0,30.0,29.77,West,278,9.0,15.0,92,0.00,,,0.11,,2013-03-12 04:22:00,
2013-03-11 23:32:00,32.0,30.0,29.77,West,278,13.0,21.0,92,0.00,,,0.11,,2013-03-12 04:32:00,
2013-03-11 23:43:00,32.0,30.0,29.77,West,278,13.0,21.0,92,0.00,,,0.11,,2013-03-12 04:43:00,
2013-03-11 23:52:00,31.0,29.0,29.78,West,278,9.0,18.0,92,0.00,,,0.11,,2013-03-12 04:52:00,